Location: Pinawa
(50.1500°N, 95.8830°W)
Time: 20:34:53
(UTC-06:00)

ISS - All Passes

Search period start: 22 February 2017 00:00
Search period end: 04 March 2017 00:00
Orbit: 399 x 408 km, 51.6° (Epoch: 23 February)

Date Brightness Start Highest point End Pass type
(mag) Time Alt. Az. Time Alt. Az. Time Alt. Az.
22 Feb - 09:35:08 10° SSW 09:37:39 20° SE 09:40:11 10° E daylight
22 Feb - 11:10:28 10° WSW 11:13:46 78° SSE 11:17:04 10° ENE daylight
22 Feb - 12:47:02 10° W 12:50:20 65° N 12:53:37 10° E daylight
22 Feb - 14:23:35 10° WNW 14:26:52 71° SSW 14:30:09 10° ESE daylight
22 Feb - 16:00:36 10° W 16:02:56 18° SW 16:05:15 10° S daylight
23 Feb - 08:43:50 10° SSE 08:45:23 13° SE 08:46:57 10° ESE daylight
23 Feb - 10:18:03 10° SW 10:21:17 54° SSE 10:24:33 10° ENE daylight
23 Feb - 11:54:28 10° W 11:57:46 67° N 12:01:03 10° ENE daylight
23 Feb - 13:31:03 10° WNW 13:34:22 87° NNE 13:37:40 10° ESE daylight
23 Feb - 15:07:44 10° W 15:10:37 28° SSW 15:13:28 10° SSE daylight
24 Feb - 09:25:48 10° SW 09:28:52 36° SSE 09:31:56 10° E daylight
24 Feb - 11:01:53 10° W 11:05:12 77° N 11:08:31 10° ENE daylight
24 Feb - 12:38:31 10° WNW 12:41:49 72° N 12:45:07 10° E daylight
24 Feb - 14:15:04 10° W 14:18:14 43° SSW 14:21:21 10° SE daylight
25 Feb - 08:33:47 10° SSW 08:36:29 23° SE 08:39:12 10° E daylight
25 Feb - 10:09:21 10° WSW 10:12:39 85° SSE 10:15:59 10° ENE daylight
25 Feb - 11:45:57 10° W 11:49:14 65° N 11:52:31 10° E daylight
25 Feb - 13:22:28 10° WNW 13:25:45 64° SSW 13:29:00 10° ESE daylight
25 Feb - 14:59:42 10° W 15:01:45 16° SW 15:03:46 10° S daylight
26 Feb - 07:42:11 10° S 07:44:10 15° SE 07:46:08 10° ESE daylight
26 Feb - 09:16:52 10° WSW 09:20:08 62° SSE 09:23:25 10° ENE daylight
26 Feb - 10:53:20 10° W 10:56:38 66° N 10:59:56 10° E daylight
26 Feb - 12:29:55 10° WNW 12:33:14 87° SSW 12:36:32 10° ESE daylight
26 Feb - 14:06:40 10° W 14:09:24 24° SW 14:12:08 10° SSE daylight
27 Feb - 08:24:31 10° SW 08:27:39 41° SSE 08:30:48 10° E daylight
27 Feb - 10:00:43 10° W 10:04:02 73° N 10:07:20 10° ENE daylight
27 Feb - 11:37:20 10° WNW 11:40:39 76° N 11:43:56 10° E daylight
27 Feb - 13:13:54 10° W 13:16:59 37° SSW 13:20:04 10° SE daylight
28 Feb - 07:32:22 10° SSW 07:35:13 27° SE 07:38:04 10° E daylight
28 Feb - 09:08:07 10° WSW 09:11:26 88° NNW 09:14:45 10° ENE daylight
28 Feb - 10:44:44 10° W 10:48:02 67° N 10:51:19 10° E daylight
28 Feb - 12:21:16 10° WNW 12:24:31 56° SSW 12:27:44 10° SE daylight
28 Feb - 13:58:45 10° WSW 14:00:25 13° SW 14:02:06 10° SSW daylight
01 Mar - 06:40:34 10° S 06:42:50 17° SE 06:45:06 10° E daylight
01 Mar - 08:15:34 10° WSW 08:18:52 69° SSE 08:22:09 10° ENE daylight
01 Mar - 09:52:06 10° W 09:55:23 65° N 09:58:40 10° E daylight
01 Mar - 11:28:39 10° WNW 11:31:58 80° SSW 11:35:15 10° ESE daylight
01 Mar - 13:05:30 10° W 13:08:05 21° SW 13:10:38 10° SSE daylight
02 Mar - 05:49:45 10° SSE 05:50:30 11° SE 05:51:15 10° ESE visible
02 Mar - 07:23:08 10° SW 07:26:19 47° SSE 07:29:31 10° ENE daylight
02 Mar - 08:59:26 10° W 09:02:45 70° N 09:06:02 10° ENE daylight
02 Mar - 10:36:02 10° WNW 10:39:21 80° NNE 10:42:39 10° E daylight
02 Mar - 12:12:38 10° W 12:15:39 33° SSW 12:18:38 10° SSE daylight
03 Mar - 06:30:52 10° SSW 06:33:50 31° SSE 06:36:47 10° E visible
03 Mar - 08:06:47 10° WSW 08:10:06 82° N 08:13:25 10° ENE daylight
03 Mar - 09:43:24 10° WNW 09:46:42 69° N 09:50:00 10° E daylight
03 Mar - 11:19:55 10° WNW 11:23:08 50° SSW 11:26:21 10° SE daylight
03 Mar - 12:57:52 10° WSW 12:58:59 11° SW 13:00:06 10° SSW daylight
